Regional Weather Roundup
Issued by NWS

Home | Current Version | Previous Version | Graphics & Text | Print | Product List | Glossary On
Versions: 1 2 3 4 5 6 7 8 9 10 11 12 13 14 15 16 17 18 19 20 21 22 23 24 25 26 27 28 29 30 31 32 33 34 35 36 37 38 39 40 41 42 43 44 45 46 47 48 49 50
956
ASUS43 KDMX 190701
RWRIA

WEATHER ROUNDUP FOR IOWA
NATIONAL WEATHER SERVICE DES MOINES IA
200 AM CDT THU OCT 19 2017

NOTE: "FAIR" INDICATES FEW OR NO CLOUDS BELOW 12,000 FEET WITH NO
SIGNIFICANT WEATHER AND/OR OBSTRUCTIONS TO VISIBILITY.

* - THESE STATIONS ARE NOT NWS STATIONS...THUS NOT UNDER NWS
QUALITY CONTROL.  THEY ALSO DO NOT REPORT WEATHER SUCH
AS PRECIPITATION OR FOG.

IAZ001>003-012>014-020>022-031>034-043>046-190800-
   NORTHWEST IOWA

CITY           SKY/WX    TMP DP  RH WIND       PRES   REMARKS
CARROLL *      CLOUDY    52  52 100 NW5       30.06R
CHEROKEE *     CLOUDY    40  40 100 CALM      30.07S
DENISON *      PTCLDY    43  43 100 CALM      30.07R
LE MARS *      CLOUDY    39  37  93 CALM      30.07R
ORANGE CITY *  CLOUDY    54  34  47 NE3       30.07R
SHELDON *      PTCLDY    37  36  93 CALM      30.05S
SIOUX CITY     CLOUDY    41  40  96 NW5       30.06R
SPENCER        CLOUDY    35  33  92 NW6       30.07R WCI  30
STORM LAKE *   CLOUDY    50  36  57 CALM      30.07R
$$

IAZ055>058-069>071-079>083-090>094-190800-
   SOUTHWEST IOWA

CITY           SKY/WX    TMP DP  RH WIND       PRES   REMARKS
ATLANTIC *     CLEAR     43  43 100 N7        30.05S
AUDUBON *      CLEAR     39  37  93 CALM      30.06S
CLARINDA *       N/A     46  46 100 NE3       30.07S
COUNCIL BLFS * CLEAR     54  48  82 E5        30.04R
CRESTON *      CLEAR     50  46  87 CALM      30.07R
HARLAN  *      PTCLDY    43  43 100 CALM      30.08S
LAMONI         CLEAR     55  48  77 S5        30.06R
RED OAK *      CLEAR     45  43  93 CALM      30.05S
SHENANDOAH *   CLEAR     48  46  93 CALM      30.05S
$$

IAZ047>049-059>061-072>074-084-190800-
   CENTRAL IOWA

CITY           SKY/WX    TMP DP  RH WIND       PRES   REMARKS
AMES           CLEAR     49  46  90 N3        30.05R
ANKENY *       CLEAR     46  46 100 CALM      30.05S
BOONE *        CLOUDY    50  39  66 N3        30.04S
CHARITON *     CLEAR     52  48  87 W5        30.05R
DES MOINES     PTCLDY    53  49  86 CALM      30.04R
GRINNELL*      CLEAR     51  47  86 CALM      30.05S
KNOXVILLE *    CLEAR     52  46  82 SW5       30.04R
MARSHALLTOWN   CLEAR     46  44  93 N3        30.04R
NEWTON *       CLEAR     54  48  82 CALM      30.05R
PELLA *        CLEAR     51  48  88 CALM      30.06R
PERRY *          N/A     43  42  97 W5        30.05R
$$

IAZ004>006-015-016-023>025-035-036-190800-
   NORTH CENTRAL IOWA

CITY           SKY/WX    TMP DP  RH WIND       PRES   REMARKS
ALGONA *       CLOUDY    46  34  61 MISG      30.07R
CLARION *      CLOUDY    45  37  76 NE7       30.06R
ESTHERVILLE    CLOUDY    39  35  86 N6        30.06R WCI  35
FORT DODGE *   CLOUDY    44  43  96 CALM      30.07R
MASON CITY     PTCLDY    42  32  67 CALM      30.08R
FOREST CITY *    N/A     43  36  75 CALM      30.06S
WEBSTER CITY * CLOUDY    41  37  87 CALM      30.04R
IOWA FALLS *     N/A     47  37  69 NW3       30.06R
$$

IAZ007>011-017>019-026>030-037>042-050>054-066-190800-
   NORTHEAST IOWA

CITY           SKY/WX    TMP DP  RH WIND       PRES   REMARKS
CEDAR RAPIDS   CLEAR     51  46  83 CALM      30.03R
CHARLES CITY * CLOUDY    48  34  57 N7        30.06R
CLINTON *      PTCLDY    53  45  74 SW6       30.04R
DECORAH *      CLOUDY    52  30  43 N6        30.04R
DUBUQUE        CLEAR     52  46  80 W6        30.05R
MONTICELLO *   CLEAR     48  46  93 CALM      30.04R
OELWEIN *      CLEAR     50  37  62 N7        30.05R
WATERLOO       CLEAR     43  41  93 CALM      30.04R
$$

IAZ064-065-067-068-078-190800-
   EAST CENTRAL IOWA

CITY           SKY/WX    TMP DP  RH WIND       PRES   REMARKS
DAVENPORT      CLEAR     56  45  66 SW7       30.06R
IOWA CITY      CLEAR     49  46  90 CALM      30.06R
MUSCATINE *    CLEAR     48  45  87 CALM      30.05R
QUAD CITIES    CLEAR     57  44  62 W3        30.04R
$$

IAZ062-063-075>077-085>089-095>099-190800-
   SOUTHEAST IOWA

CITY           SKY/WX    TMP DP  RH WIND       PRES   REMARKS
BURLINGTON     CLEAR     53  46  77 SW7       30.05S
FAIRFIELD *    CLEAR     52  46  82 SW6       30.05R
FORT MADISON * CLEAR     55  48  76 SW6       30.06S
KEOKUK *       CLEAR     55  46  71 SW6       30.06R
OSKALOOSA *      N/A     49  46  90 W5        30.05R
OTTUMWA        CLEAR     50  47  89 SW6       30.05R
WASHINGTON *   CLEAR     52  48  87 SW5       30.06R
$$

ABBREVIATIONS USED IN REMARKS
   TC - TEMPERATURES IN CELSIUS
  WCI - WIND CHILL INDEX
   HX - HEAT INDEX
  VSB - VISIBILITY
$$





USA.gov is the U.S. government's official web portal to all federal, state and local government web resources and services.